TimeCDT,TemperatureF,Dew PointF,Humidity,Sea Level PressureIn,VisibilityMPH,Wind Direction,Wind SpeedMPH,Gust SpeedMPH,PrecipitationIn,Events,Conditions,WindDirDegrees,DateUTC
12:15 AM,42.8,32.0,66,30.03,10.0,Calm,Calm,-,N/A,,Clear,0,2012-11-01 05:15:00
12:35 AM,39.2,30.2,70,30.03,10.0,Calm,Calm,-,N/A,,Clear,0,2012-11-01 05:35:00
12:55 AM,39.2,30.2,70,30.03,10.0,Calm,Calm,-,N/A,,Clear,0,2012-11-01 05:55:00
1:15 AM,39.2,30.2,70,30.03,10.0,Calm,Calm,-,N/A,,Clear,0,2012-11-01 06:15:00
1:35 AM,39.2,30.2,70,30.03,10.0,Calm,Calm,-,N/A,,Clear,0,2012-11-01 06:35:00
1:55 AM,39.2,30.2,70,30.03,10.0,Calm,Calm,-,N/A,,Clear,0,2012-11-01 06:55:00
2:15 AM,39.2,30.2,70,30.03,10.0,Calm,Calm,-,N/A,,Clear,0,2012-11-01 07:15:00
2:35 AM,37.4,30.2,75,30.03,10.0,Calm,Calm,-,N/A,,Clear,0,2012-11-01 07:35:00
2:55 AM,37.4,28.4,70,30.03,10.0,Calm,Calm,-,N/A,,Clear,0,2012-11-01 07:55:00
3:15 AM,35.6,28.4,75,30.03,10.0,Calm,Calm,-,N/A,,Clear,0,2012-11-01 08:15:00
3:35 AM,35.6,28.4,75,30.03,10.0,Calm,Calm,-,N/A,,Clear,0,2012-11-01 08:35:00
3:55 AM,37.4,28.4,70,30.03,10.0,Calm,Calm,-,N/A,,Clear,0,2012-11-01 08:55:00
4:15 AM,35.6,28.4,75,30.03,10.0,WNW,3.5,-,N/A,,Clear,290,2012-11-01 09:15:00
4:35 AM,37.4,30.2,75,30.02,10.0,West,3.5,-,N/A,,Clear,270,2012-11-01 09:35:00
5:15 AM,35.6,28.4,75,30.02,10.0,Calm,Calm,-,N/A,,Clear,0,2012-11-01 10:15:00
5:35 AM,35.6,28.4,75,30.02,10.0,West,5.8,-,N/A,,Clear,280,2012-11-01 10:35:00
5:55 AM,35.6,28.4,75,30.02,10.0,SW,5.8,-,N/A,,Clear,220,2012-11-01 10:55:00
6:15 AM,35.6,28.4,75,30.02,10.0,West,4.6,-,N/A,,Clear,260,2012-11-01 11:15:00
6:35 AM,35.6,28.4,75,30.03,10.0,Calm,Calm,-,N/A,,Clear,0,2012-11-01 11:35:00
6:55 AM,35.6,28.4,75,30.03,10.0,Calm,Calm,-,N/A,,Clear,0,2012-11-01 11:55:00
7:15 AM,35.6,28.4,75,30.03,10.0,Calm,Calm,-,N/A,,Clear,0,2012-11-01 12:15:00
7:35 AM,35.6,28.4,75,30.03,10.0,Calm,Calm,-,N/A,,Clear,0,2012-11-01 12:35:00
7:55 AM,35.6,28.4,75,30.03,10.0,Calm,Calm,-,N/A,,Clear,0,2012-11-01 12:55:00
8:35 AM,35.6,30.2,81,30.03,10.0,SW,4.6,-,N/A,,Clear,230,2012-11-01 13:35:00
8:55 AM,39.2,33.8,81,30.04,10.0,SW,4.6,-,N/A,,Clear,230,2012-11-01 13:55:00
9:15 AM,42.8,35.6,76,30.05,10.0,Calm,Calm,-,N/A,,Clear,0,2012-11-01 14:15:00
9:35 AM,44.6,37.4,76,30.05,10.0,SW,4.6,-,N/A,,Clear,230,2012-11-01 14:35:00
10:15 AM,51.8,37.4,58,30.05,10.0,NNW,4.6,-,N/A,,Clear,330,2012-11-01 15:15:00
10:35 AM,53.6,37.4,54,30.05,10.0,Calm,Calm,-,N/A,,Clear,0,2012-11-01 15:35:00
10:55 AM,55.4,37.4,51,30.04,10.0,Calm,Calm,-,N/A,,Clear,0,2012-11-01 15:55:00
11:15 AM,59.0,37.4,45,30.03,10.0,Calm,Calm,-,N/A,,Clear,0,2012-11-01 16:15:00
11:35 AM,62.6,39.2,42,30.03,10.0,Calm,Calm,-,N/A,,Clear,0,2012-11-01 16:35:00
11:55 AM,62.6,37.4,39,30.03,10.0,Calm,Calm,-,N/A,,Clear,0,2012-11-01 16:55:00
12:15 PM,64.4,37.4,37,30.02,10.0,South,3.5,-,N/A,,Clear,180,2012-11-01 17:15:00
12:35 PM,66.2,37.4,35,30.02,10.0,SSW,3.5,-,N/A,,Clear,210,2012-11-01 17:35:00
1:15 PM,69.8,37.4,31,30.00,10.0,Calm,Calm,-,N/A,,Clear,0,2012-11-01 18:15:00
1:35 PM,71.6,35.6,27,29.98,10.0,Calm,Calm,-,N/A,,Clear,0,2012-11-01 18:35:00
1:55 PM,73.4,37.4,27,29.98,10.0,Calm,Calm,-,N/A,,Clear,0,2012-11-01 18:55:00
2:15 PM,73.4,35.6,25,29.97,10.0,SSE,4.6,-,N/A,,Clear,160,2012-11-01 19:15:00
2:35 PM,73.4,33.8,23,29.95,10.0,SW,3.5,-,N/A,,Clear,220,2012-11-01 19:35:00
2:55 PM,75.2,33.8,22,29.94,10.0,SE,3.5,-,N/A,,Clear,140,2012-11-01 19:55:00
3:15 PM,75.2,33.8,22,29.94,10.0,SE,4.6,-,N/A,,Clear,140,2012-11-01 20:15:00
3:35 PM,75.2,33.8,22,29.93,10.0,SE,5.8,-,N/A,,Clear,140,2012-11-01 20:35:00
3:55 PM,75.2,33.8,22,29.93,10.0,South,4.6,-,N/A,,Clear,170,2012-11-01 20:55:00
4:15 PM,75.2,33.8,22,29.93,10.0,South,6.9,-,N/A,,Clear,190,2012-11-01 21:15:00
4:35 PM,77.0,33.8,21,29.92,10.0,SSE,8.1,-,N/A,,Clear,160,2012-11-01 21:35:00
4:55 PM,75.2,33.8,22,29.92,10.0,SSE,6.9,-,N/A,,Clear,150,2012-11-01 21:55:00
5:15 PM,75.2,35.6,24,29.91,10.0,SSE,8.1,-,N/A,,Clear,150,2012-11-01 22:15:00
5:35 PM,73.4,33.8,23,29.91,10.0,SE,8.1,-,N/A,,Clear,140,2012-11-01 22:35:00
6:15 PM,68.0,33.8,28,29.91,10.0,SE,6.9,-,N/A,,Clear,140,2012-11-01 23:15:00
6:35 PM,66.2,33.8,30,29.92,10.0,SE,5.8,-,N/A,,Clear,130,2012-11-01 23:35:00
6:55 PM,66.2,33.8,30,29.91,10.0,ESE,5.8,-,N/A,,Clear,120,2012-11-01 23:55:00
7:15 PM,62.6,33.8,34,29.92,10.0,SE,6.9,-,N/A,,Clear,130,2012-11-02 00:15:00
7:35 PM,62.6,33.8,34,29.92,10.0,ESE,5.8,-,N/A,,Clear,120,2012-11-02 00:35:00
7:55 PM,60.8,33.8,36,29.92,10.0,SE,6.9,-,N/A,,Clear,130,2012-11-02 00:55:00
8:15 PM,57.2,33.8,41,29.92,10.0,SE,6.9,-,N/A,,Clear,140,2012-11-02 01:15:00
8:35 PM,57.2,33.8,41,29.92,10.0,SE,8.1,-,N/A,,Clear,130,2012-11-02 01:35:00
8:55 PM,55.4,33.8,44,29.92,10.0,SE,8.1,-,N/A,,Clear,140,2012-11-02 01:55:00
9:15 PM,55.4,33.8,44,29.91,10.0,SSE,9.2,-,N/A,,Clear,160,2012-11-02 02:15:00
9:35 PM,59.0,35.6,42,29.91,10.0,SSE,10.4,-,N/A,,Clear,150,2012-11-02 02:35:00
9:55 PM,55.4,33.8,44,29.91,10.0,SE,8.1,-,N/A,,Clear,140,2012-11-02 02:55:00
10:15 PM,53.6,33.8,47,29.91,10.0,SSE,9.2,-,N/A,,Clear,150,2012-11-02 03:15:00
10:35 PM,53.6,33.8,47,29.91,10.0,SE,8.1,-,N/A,,Clear,140,2012-11-02 03:35:00
10:55 PM,53.6,33.8,47,29.90,10.0,SE,8.1,-,N/A,,Clear,140,2012-11-02 03:55:00
11:15 PM,51.8,33.8,50,29.90,10.0,SE,6.9,-,N/A,,Clear,140,2012-11-02 04:15:00
11:35 PM,51.8,33.8,50,29.90,10.0,SSE,5.8,-,N/A,,Clear,150,2012-11-02 04:35:00
11:55 PM,51.8,33.8,50,29.90,10.0,SSE,8.1,-,N/A,,Clear,160,2012-11-02 04:55:00